User: anonymous   Login
Location: Unspecified
(0.0000°N, 0.0000°E)
Time: 11:30:23
(UTC+00:00)
Language:

Vanguard 2 - Orbit

View from above orbital plane
View from above orbital plane
View from above satellite
View from above satellite

Ground track
Ground track

The orbit data is extracted from the following two-line orbital elements,

1 00011U 59001A   18051.85856288  .00000110  00000-0  52982-4 0  9994
2 00011  32.8696 357.2150 1468251 147.2274 222.8611 11.85539299516102
Epoch (UTC): 20 February 2018 20:36:19
Eccentricity: 0.1468251
inclination: 32.8696°
perigee height: 553 km
apogee height: 2939 km
right ascension of ascending node: 357.2150°
argument of perigee: 147.2274°
revolutions per day: 11.85539299
mean anomaly at epoch: 222.8611°
orbit number at epoch: 51610

The dashed part of the orbit path shows where the satellite is in the earth's shadow,  

DLR